Home   Weather   Pond Inlet   Past weeks

Flag for Canada Past Weather in Pond Inlet, Nunavut, Canada — Yesterday and Last 2 Weeks

Now
9 °F

Overcast.


Feels Like: -8 °F
Forecast: -8 / 8 °F
Wind: 14 mph from East

Location: Pond Inlet

Current Time: Apr 23, 2017 at 1:39:17 am

Latest Report: Apr 23, 2017 at 1:00 am


Visibility: 9 mi

Pressure: 30.28 "Hg

Humidity: 56%

Dew Point: -4 °F

Location of Pond InletLocation

Past Weather in Pond Inlet — Graph

°F

Pond Inlet Temperature Yesterday

Maximum temperature yesterday: 12 °F (at 10:00 am)
Minimum temperature yesterday: -4 °F (at 12:00 am)
Average temperature yesterday: 6 °F

High & Low Weather Summary for the Past Weeks

 TemperatureHumidityPressure
High21 °F (Apr 9, 6:16 am)93% (Apr 9, 7:00 am)30.34 "Hg (Apr 9, 7:00 am)
Low-15 °F (Apr 19, 5:00 am)56% (Apr 22, 11:00 pm)29.68 "Hg (Apr 10, 7:00 pm)
Average3 °F82%30.03 "Hg
* Reported Apr 8 12:00 am — Apr 23 12:00 am, Pond Inlet, Weather by CustomWeather, © 2017

Note: Actual official high and low records may vary slightly from our data, if they occured in-between our weather recording intervals... More about our weather records

Advertising

Pond Inlet Weather History for the Previous 24 Hours

Scroll right to see more
 ConditionsComfort  
Time TempWeatherWind HumidityBarometerVisibility
12:00 am
Sun, Apr 23
7 °FOvercast.8 mph66%30.29 "Hg9 mi
11:00 pm
Sat, Apr 22
9 °FPassing clouds.9 mph56%30.29 "Hg9 mi
10:00 pm7 °FPassing clouds.9 mph66%30.30 "Hg9 mi
9:00 pm9 °FClear.8 mph66%30.30 "Hg9 mi
8:00 pm10 °FMostly cloudy.9 mph61%30.30 "Hg9 mi
7:00 pm10 °FOvercast.8 mph67%30.30 "Hg9 mi
6:00 pm12 °FOvercast.10 mph62%30.31 "Hg9 mi
5:00 pm12 °FLight snow. Overcast.8 mph67%30.31 "Hg15 mi
4:00 pm12 °FLight snow. Overcast.13 mph67%30.31 "Hg15 mi
3:00 pm12 °FLight snow. Mostly cloudy.8 mph73%30.31 "Hg8 mi
2:00 pm9 °FLight snow. Overcast.5 mph85%30.31 "Hg15 mi
1:43 pm10 °FOvercast.3 mph79%30.31 "Hg9 mi
1:23 pm9 °FLight snow. Mostly cloudy.6 mph85%30.31 "Hg9 mi
1:00 pm9 °FOvercast.No wind78%30.31 "Hg9 mi
12:00 pm12 °FOvercast.9 mph67%30.31 "Hg9 mi
11:00 am12 °FOvercast.12 mph67%30.30 "Hg9 mi
10:00 am12 °FOvercast.13 mph67%30.30 "Hg9 mi
9:00 am9 °FOvercast.6 mph72%30.31 "Hg9 mi
8:00 am9 °FOvercast.5 mph72%30.32 "Hg9 mi
7:23 am7 °FOvercast.5 mph72%30.32 "Hg9 mi
7:00 am3 °FLight snow. Mostly cloudy.2 mph85%30.32 "Hg9 mi
6:13 am1 °FLight snow. Mostly cloudy.5 mph85%30.33 "Hg9 mi
6:00 am0 °FLight snow. Mostly cloudy.5 mph84%30.33 "Hg9 mi
5:27 am0 °FLight snow. Overcast.5 mph84%30.33 "Hg6 mi
5:19 am0 °FLight snow. Overcast.5 mph84%30.33 "Hg5 mi
5:00 am-2 °FLight snow. Overcast.6 mph84%30.32 "Hg8 mi
4:00 am-2 °FLight snow. Overcast.6 mph84%30.33 "Hg9 mi
3:34 am-2 °FLight snow. Overcast.6 mph77%30.33 "Hg5 mi
2:00 am-4 °FLight snow. Overcast.5 mph84%30.33 "Hg9 mi
1:00 am-4 °FLight snow. Passing clouds.6 mph84%30.33 "Hg9 mi
Weather by CustomWeather, © 2017

See weather overviewHow to use our weather pages